Simultaneous Nadir Overpasses (SNOs) Predictions

Prediction of SNOs between AQUA and GOES-15 Satellite Orbit:

Table of predicted SNOs for the next 14.0 days since TLE Epoch: 12/8/2017
Index Date Time (AQUA) AQUA Lat,Lon GOES-15 Lat,Lon Distance(km) Time Diff (sec)
1 12/09/2017 10:25:47 -0.62,-132.65 -0.01,-135.44 317.83 80
2 12/09/2017 22:47:09 -0.52,-137.83 0.03,-135.36 281.02 80
3 12/11/2017 22:34:58 0.14,-134.87 0.02,-135.37 57.11 80
4 12/13/2017 22:22:46 0.75,-131.91 0.02,-135.38 394.95 80
5 12/14/2017 10:44:03 0.29,-137.08 -0.03,-135.47 182.69 80
6 12/16/2017 10:31:51 -0.32,-134.11 -0.03,-135.47 154.50 80
7 12/16/2017 22:53:14 -0.82,-139.29 0.04,-135.39 444.56 80
8 12/18/2017 10:19:39 -0.93,-131.15 -0.02,-135.47 491.07 80
9 12/18/2017 22:41:02 -0.20,-136.33 0.03,-135.39 108.17 80
10 12/20/2017 22:28:51 0.48,-133.38 0.03,-135.38 227.70 80
11 12/21/2017 10:50:07 0.62,-138.54 -0.04,-135.45 350.62 80




NCC Satellite Simultaneous Nadir Overpasses (SNOs) Prediction Service
